ICEYE-X64

operational
NORAD ID: 67373 Int'l Des: 2026-004 Owner: PUOL Country: FI
LEOCIRCULARRETROGRADESSO

Über ICEYE-X64

Beschreibung wird geladen...

Live-Position

3D-Globus wird geladen...

Nächste Überflüge

Höhenverlauf

Altitude vs Time

uPlot chart will show altitude changes over time

Zweizeiliger Elementsatz

1 67373U 26004L 26071.14240362 .00004347 00000-0 48296-3 0 9996
2 67373 97.8016 71.2939 0007595 94.6165 265.5919 14.87686273 8868
Epoch: 12. März 2026 • Age: 41 hours

Aktueller Status

Höhe 613.7 km
Geschwindigkeit 7.55 km/s
Subsatellitenpunkt -17.67°S, 177.56°E
Startdatum 11. Jan. 2026
Alter 0.1 years
Typ other

Technische Details

Klassifizierung Payload
Masse 120.00 kg
Trockenmasse 120.00 kg
Gesamtmasse 120.00 kg
Länge 0.80 m
Durchmesser 0.60 m
Spannweite 1.50 m
Form Box + pan
Hersteller ICEYE
Bus-Typ ICEYE
Phasenstatus In Orbit
Besitzer/Staat PUOL/FI

Große Konstellationen

Loading constellations...